Flag for Canada Weather past 2 weeks in Saint John, New Brunswick, Canada

Now
9 °F

Clear.


Feels Like: 9 °F
Forecast: 13 / 28 °F
Wind: 2 mph from South

Location: Saint John

Current Time: Mar 6, 2015 at 9:16:39 PM

Latest Report: Mar 6, 2015 at 8:00 PM


Visibility: 15 mi

Pressure: 30.31 "Hg

Humidity: 66%

Dew point: 0 °F

Location of Saint JohnLocation

Historic Weather in Saint John — Graph

°F

Saint John temperature yesterday

Maximum temperature yesterday: 30 °F (at 2:00 AM)
Minimum temperature yesterday: 7 °F (at 11:00 PM)
Average temperature yesterday: 21 °F

Past Weeks' High & Low Weather Summary

 TemperatureHumidityPressure
High39 °F (Mar 4, 1:00 PM)100% (Feb 22, 12:00 AM)30.67 "Hg (Feb 22, 12:00 AM)
Low-15 °F (Feb 28, 7:00 AM)27% (Mar 3, 4:00 PM)29.26 "Hg (Feb 20, 3:00 AM)
Average15 °F68%30.05 "Hg
* Reported Feb 19 8:00 PM — Mar 6 8:00 PM, Saint John, Weather by CustomWeather, © 2015

Note: Actual official high and low records may vary slightly from our data, if they occured in-between our weather recording intervals... More about our weather records

Advertising

Saint John weather history for previous 24 hours

 ConditionsComfort  
Time TempWeatherWind HumidityBarometerVisibility
8:00 PM
Fri, Mar 6
9 °FClear.2 mph66%30.31 "Hg15 mi
7:00 PM12 °FClear.5 mph52%30.32 "Hg15 mi
6:00 PM16 °FSunny.9 mph48%30.33 "Hg15 mi
5:00 PM16 °FSunny.16 mph48%30.32 "Hg15 mi
4:00 PM18 °FSunny.16 mph41%30.34 "Hg15 mi
3:00 PM16 °FSunny.15 mph48%30.35 "Hg15 mi
2:00 PM18 °FCold.10 mph35%30.36 "Hg15 mi
1:00 PM16 °FSunny.9 mph31%30.38 "Hg15 mi
12:00 PM14 °FSunny.6 mph37%30.39 "Hg15 mi
11:00 AM10 °FSunny.5 mph44%30.40 "Hg15 mi
10:00 AM7 °FPassing clouds.8 mph47%30.40 "Hg15 mi
9:00 AM3 °FPassing clouds.10 mph50%30.40 "Hg15 mi
8:00 AM-6 °FPassing clouds.3 mph70%30.37 "Hg15 mi
7:00 AM-8 °FPassing clouds.6 mph70%30.35 "Hg15 mi
6:00 AM-9 °FClear.3 mph77%30.33 "Hg15 mi
5:00 AM-6 °FClear.3 mph64%30.30 "Hg15 mi
4:00 AM-2 °FClear.5 mph59%30.27 "Hg15 mi
3:00 AM0 °FPassing clouds.8 mph54%30.25 "Hg15 mi
2:00 AM3 °FPassing clouds.8 mph46%30.24 "Hg15 mi
1:00 AM5 °FOvercast.15 mph46%30.21 "Hg15 mi
12:00 AM5 °FOvercast.13 mph46%30.19 "Hg15 mi
11:00 PM
Thu, Mar 5
7 °FPassing clouds.16 mph43%30.16 "Hg15 mi
10:00 PM9 °FPassing clouds.22 mph39%30.14 "Hg15 mi
9:00 PM10 °FPassing clouds.12 mph36%30.11 "Hg15 mi
Weather by CustomWeather, © 2015

See weather overviewHow to use our weather pages